Weather History for KAVK - June, 2013

Change the Weather History Date:

Thursday, June 13, 2013

  Actual Average Record
Temperature  
Mean Temperature 82 °F -  
Max Temperature 96 °F 91 °F 108 °F (1953)
Min Temperature 68 °F 66 °F 50 °F (1951)
Cooling Degree Days 17    
Growing Degree Days 32 (Base 50)    
Moisture  
Dew Point 63 °F    
Average Humidity 56    
Maximum Humidity 78    
Minimum Humidity 32    
Precipitation  
Precipitation 0.00 in - - ()
Sea Level Pressure  
Sea Level Pressure 29.99 in    
Wind  
Wind Speed 10 mph (ESE)    
Max Wind Speed 16 mph    
Max Gust Speed 24 mph    
Visibility 10 miles    
Events      
Averages and records for this station are not official NWS values.
T = Trace of Precipitation, MM = Missing Value Source: NWS Daily Summary

Daily Weather History Graph

Daily Weather History Graph

Search for Another Location

Airport or City:

Trip Planner

Search our weather history database for the weather conditions in past years. The results will help you decide how hot, cold, wet, or windy it might be!

Date:

Astronomy

Jun. 13, 2013 Rise Set
Actual Time 6:15 AM CDT 8:54 PM CDT
Civil Twilight 5:44 AM CDT 9:25 PM CDT
Nautical Twilight 5:06 AM CDT 10:03 PM CDT
Astronomical Twilight 4:23 AM CDT 10:46 PM CDT
Moon 10:47 AM CDT (6/13) No Moon Set
Length of Visible Light 15h 40m
Length of Day
14h 39m
Waxing Crescent, 22% of the Moon is Illuminated
Jun 13
Waxing Crescent
Jun 16
First Quarter
Jun 23
Full
Jun 29
Last Quarter
Jul 8
New

Hourly Weather History & Observations

Time (CDT) Temp. Heat Index Dew Point Humidity Pressure Visibility Wind Dir Wind Speed Gust Speed Precip Events Conditions
12:05 AM 73.4 °F - 66.2 °F 78% 29.95 in 10.0 mi North 9.2 mph - N/A   Clear
12:25 AM 75.2 °F - 66.2 °F 73% 29.96 in 10.0 mi North 6.9 mph - N/A   Clear
12:45 AM 77.0 °F - 64.4 °F 65% 29.96 in 10.0 mi NW 5.8 mph - N/A   Clear
1:05 AM 77.0 °F - 64.4 °F 65% 29.97 in 10.0 mi West 4.6 mph - N/A   Clear
1:25 AM 77.0 °F - 64.4 °F 65% 29.97 in 10.0 mi WNW 6.9 mph - N/A   Clear
1:45 AM 73.4 °F - 64.4 °F 73% 29.97 in 10.0 mi NW 5.8 mph - N/A   Clear
2:05 AM 75.2 °F - 66.2 °F 73% 29.98 in 10.0 mi North 6.9 mph - N/A   Clear
2:25 AM 77.0 °F - 66.2 °F 69% 29.98 in 10.0 mi NNE 6.9 mph - N/A   Clear
2:45 AM 75.2 °F - 68.0 °F 78% 29.99 in 10.0 mi NNE 10.4 mph - N/A   Clear
3:05 AM 77.0 °F - 68.0 °F 74% 29.99 in 10.0 mi NNE 10.4 mph - N/A   Clear
3:25 AM 77.0 °F - 64.4 °F 65% 30.00 in 10.0 mi NE 13.8 mph - N/A   Clear
3:45 AM 75.2 °F - 64.4 °F 69% 30.00 in 10.0 mi NNE 11.5 mph - N/A   Clear
4:05 AM 75.2 °F - 62.6 °F 65% 30.01 in 10.0 mi NNE 11.5 mph 23.0 mph N/A   Clear
4:25 AM 73.4 °F - 62.6 °F 69% 30.01 in 10.0 mi NE 15.0 mph 24.2 mph N/A   Clear
4:45 AM 73.4 °F - 60.8 °F 65% 30.02 in 10.0 mi NE 15.0 mph - N/A   Clear
5:05 AM 71.6 °F - 60.8 °F 69% 30.03 in 10.0 mi NE 15.0 mph - N/A   Clear
5:25 AM 71.6 °F - 59.0 °F 64% 30.04 in 10.0 mi NNE 12.7 mph - N/A   Clear
5:45 AM 69.8 °F - 59.0 °F 68% 30.04 in 10.0 mi NE 12.7 mph 18.4 mph N/A   Clear
6:05 AM 68.0 °F - 59.0 °F 73% 30.05 in 10.0 mi NE 11.5 mph 18.4 mph N/A   Clear
6:25 AM 68.0 °F - 59.0 °F 73% 30.06 in 10.0 mi NNE 8.1 mph - N/A   Clear
6:45 AM 68.0 °F - 59.0 °F 73% 30.06 in 10.0 mi NE 10.4 mph - N/A   Clear
7:05 AM 68.0 °F - 59.0 °F 73% 30.07 in 10.0 mi NE 10.4 mph - N/A   Clear
7:25 AM 68.0 °F - 59.0 °F 73% 30.07 in 10.0 mi ENE 11.5 mph - N/A   Clear
7:45 AM 69.8 °F - 57.2 °F 64% 30.07 in 10.0 mi ENE 11.5 mph 17.3 mph N/A   Clear
8:05 AM 69.8 °F - 57.2 °F 64% 30.08 in 10.0 mi ENE 12.7 mph 20.7 mph N/A   Clear
8:25 AM 71.6 °F - 55.4 °F 57% 30.08 in 10.0 mi ENE 13.8 mph 19.6 mph N/A   Clear
8:45 AM 71.6 °F - 55.4 °F 57% 30.08 in 10.0 mi ENE 12.7 mph - N/A   Clear
9:05 AM 73.4 °F - 57.2 °F 57% 30.09 in 10.0 mi East 11.5 mph 17.3 mph N/A   Clear
9:25 AM 73.4 °F - 57.2 °F 57% 30.09 in 10.0 mi East 11.5 mph - N/A   Clear
9:45 AM 75.2 °F - 57.2 °F 53% 30.09 in 10.0 mi ENE 9.2 mph 17.3 mph N/A   Clear
10:05 AM 75.2 °F - 59.0 °F 57% 30.08 in 10.0 mi East 8.1 mph - N/A   Clear
10:25 AM 77.0 °F - 59.0 °F 54% 30.07 in 10.0 mi East 11.5 mph 16.1 mph N/A   Clear
10:45 AM 78.8 °F - 60.8 °F 54% 30.06 in 10.0 mi ESE 8.1 mph - N/A   Clear
11:05 AM 80.6 °F 81.5 °F 60.8 °F 51% 30.07 in 10.0 mi SE 8.1 mph - N/A   Clear
11:25 AM 80.6 °F 81.8 °F 62.6 °F 54% 30.06 in 10.0 mi ESE 9.2 mph - N/A   Clear
11:45 AM 82.4 °F 83.4 °F 62.6 °F 51% 30.06 in 10.0 mi ESE 9.2 mph - N/A   Clear
12:05 PM 82.4 °F 83.4 °F 62.6 °F 51% 30.06 in 10.0 mi ENE 5.8 mph - N/A   Clear
12:25 PM 84.2 °F 85.0 °F 62.6 °F 48% 30.05 in 10.0 mi East 9.2 mph - N/A   Clear
12:45 PM 86.0 °F 87.3 °F 64.4 °F 48% 30.04 in 10.0 mi SE 5.8 mph - N/A   Clear
1:05 PM 86.0 °F 86.6 °F 62.6 °F 45% 30.04 in 10.0 mi SE 4.6 mph - N/A   Clear
1:25 PM 89.6 °F 91.1 °F 64.4 °F 43% 30.03 in 10.0 mi ESE 9.2 mph - N/A   Clear
1:45 PM 89.6 °F 91.1 °F 64.4 °F 43% 30.02 in 10.0 mi South 4.6 mph - N/A   Clear
2:05 PM 91.4 °F 93.2 °F 64.4 °F 41% 30.01 in 10.0 mi South 3.5 mph - N/A   Clear
2:25 PM 93.2 °F 94.9 °F 64.4 °F 38% 30.01 in 10.0 mi South 9.2 mph - N/A   Clear
2:45 PM 93.2 °F 94.9 °F 64.4 °F 38% 30.00 in 10.0 mi SSE 6.9 mph - N/A   Clear
3:05 PM 93.2 °F 94.9 °F 64.4 °F 38% 29.99 in 10.0 mi South 8.1 mph - N/A   Clear
3:25 PM 95.0 °F 97.0 °F 64.4 °F 36% 29.99 in 10.0 mi SSW 10.4 mph 17.3 mph N/A   Clear
3:45 PM 95.0 °F 98.5 °F 66.2 °F 39% 29.97 in 10.0 mi SSE 8.1 mph 18.4 mph N/A   Clear
4:05 PM 95.0 °F 98.5 °F 66.2 °F 39% 29.96 in 10.0 mi SSW 10.4 mph 17.3 mph N/A   Clear
4:25 PM 95.0 °F 98.5 °F 66.2 °F 39% 29.95 in 10.0 mi SSE 11.5 mph - N/A   Clear
4:45 PM 95.0 °F 98.5 °F 66.2 °F 39% 29.94 in 10.0 mi SSW 5.8 mph - N/A   Clear
5:05 PM 95.0 °F 98.5 °F 66.2 °F 39% 29.93 in 10.0 mi SSE 12.7 mph - N/A   Clear
5:25 PM 96.8 °F 100.7 °F 66.2 °F 37% 29.92 in 10.0 mi SSE 11.5 mph 17.3 mph N/A   Clear
5:45 PM 96.8 °F 100.7 °F 66.2 °F 37% 29.91 in 10.0 mi South 11.5 mph 19.6 mph N/A   Clear
6:05 PM 96.8 °F 99.0 °F 64.4 °F 34% 29.90 in 10.0 mi South 11.5 mph 21.9 mph N/A   Clear
6:25 PM 96.8 °F 99.0 °F 64.4 °F 34% 29.90 in 10.0 mi SSE 16.1 mph 19.6 mph N/A   Clear
6:45 PM 95.0 °F 96.0 °F 62.6 °F 34% 29.89 in 10.0 mi SSE 12.7 mph - N/A   Clear
7:05 PM 95.0 °F 96.0 °F 62.6 °F 34% 29.89 in 10.0 mi SSE 15.0 mph 19.6 mph N/A   Clear
7:25 PM 95.0 °F 95.2 °F 60.8 °F 32% 29.89 in 10.0 mi SSE 12.7 mph - N/A   Clear
7:45 PM 93.2 °F 94.1 °F 62.6 °F 36% 29.89 in 10.0 mi SSE 10.4 mph - N/A   Clear
8:05 PM 91.4 °F 92.1 °F 62.6 °F 38% 29.90 in 10.0 mi SSE 9.2 mph - N/A   Clear
8:25 PM 89.6 °F 90.1 °F 62.6 °F 40% 29.91 in 10.0 mi SSE 8.1 mph - N/A   Clear
8:45 PM 86.0 °F 87.3 °F 64.4 °F 48% 29.91 in 10.0 mi SE 6.9 mph - N/A   Clear
9:05 PM 84.2 °F 85.6 °F 64.4 °F 51% 29.92 in 10.0 mi SE 8.1 mph - N/A   Clear
9:25 PM 82.4 °F 83.9 °F 64.4 °F 54% 29.93 in 10.0 mi SE 8.1 mph - N/A   Clear
9:45 PM 82.4 °F 85.4 °F 68.0 °F 62% 29.93 in 10.0 mi ESE 9.2 mph - N/A   Clear
10:05 PM 82.4 °F 87.2 °F 71.6 °F 70% 29.94 in 10.0 mi ESE 13.8 mph - N/A   Clear
10:25 PM 82.4 °F 87.2 °F 71.6 °F 70% 29.96 in 10.0 mi ESE 16.1 mph 19.6 mph N/A   Clear
10:45 PM 80.6 °F 84.6 °F 71.6 °F 74% 29.96 in 10.0 mi ESE 13.8 mph - N/A   Clear
11:05 PM 80.6 °F 84.6 °F 71.6 °F 74% 29.97 in 10.0 mi ESE 13.8 mph - N/A   Clear
11:25 PM 78.8 °F - 71.6 °F 78% 29.97 in 10.0 mi SE 13.8 mph - N/A   Clear
11:45 PM 78.8 °F - 71.6 °F 78% 29.97 in 10.0 mi SE 11.5 mph - N/A   Clear